WB4ROX-10 Weather Reports


time (UTC)temp
C
wind
direction
speed
KPH
gust
KPH
rain 1hr
cm
rain 24hr
cm
rain mn
cm
humidity
%
barometer
mb
20260906072540 18 74 0.0 1.6 0.00 0.00 0.00 88 1011.2
20260906072040 18 296 3.2 4.8 0.00 0.00 0.00 88 1011.2
20260906071040 18 42 1.6 1.6 0.00 0.00 0.00 88 1011.2
20260906070040 18 75 0.0 1.6 0.00 0.00 0.00 88 1011.2
20260906065041 18 70 0.0 0.0 0.00 0.00 0.00 88 1011.2
20260906064541 18 65 0.0 0.0 0.00 0.00 0.00 88 1011.5
20260906062040 17 62 1.6 1.6 0.00 0.00 0.00 89 1011.6
20260906061541 17 82 0.0 0.0 0.00 0.00 0.00 89 1011.9
20260906061041 17 104 0.0 0.0 0.00 0.00 0.00 88 1011.8
20260906060040 17 70 0.0 0.0 0.00 0.00 0.00 87 1011.9
20260906055040 17 70 0.0 0.0 0.00 0.00 0.00 88 1011.9
20260906054041 17 72 0.0 1.6 0.00 0.00 0.00 88 1012.1
20260906053541 17 70 0.0 0.0 0.00 0.00 0.00 88 1012.1
20260906053040 17 68 1.6 1.6 0.00 0.00 0.00 88 1012.3
20260906052540 17 72 0.0 0.0 0.00 0.00 0.00 89 1012.0
20260906052041 17 56 0.0 0.0 0.00 0.00 0.00 90 1012.3
20260906051541 17 70 0.0 0.0 0.00 0.00 0.00 90 1012.2
20260906050541 17 75 0.0 0.0 0.00 0.00 0.00 89 1012.3
20260906045541 17 70 0.0 0.0 0.00 0.00 0.00 89 1012.3
20260906045042 17 65 1.6 1.6 0.00 0.00 0.00 90 1012.4
20260906044041 17 63 0.0 0.0 0.00 0.00 0.00 90 1012.3
20260906043540 17 64 0.0 0.0 0.00 0.00 0.00 89 1012.2
20260906043041 17 64 0.0 0.0 0.00 0.00 0.00 89 1011.9
20260906042540 17 65 0.0 0.0 0.00 0.00 0.00 89 1012.3
20260906042040 17 65 0.0 0.0 0.00 0.00 0.00 89 1012.2
20260906041540 17 64 1.6 1.6 0.00 0.00 0.00 90 1012.3
20260906041041 17 73 0.0 0.0 0.00 0.00 0.00 90 1012.1
20260906040541 17 64 0.0 0.0 0.00 0.00 0.00 91 1012.3
20260906040041 17 62 0.0 0.0 0.00 0.00 0.00 91 1012.4
20260906035541 17 62 0.0 0.0 0.00 0.00 0.00 92 1012.4
20260906035040 17 64 0.0 0.0 0.00 0.00 0.00 92 1012.5
20260906034540 17 69 0.0 0.0 0.00 0.00 0.00 92 1012.5
20260906034040 17 70 0.0 0.0 0.00 0.00 0.00 92 1012.7
20260906033540 17 124 1.6 1.6 0.00 0.00 0.00 92 1012.5
20260906033040 17 76 0.0 0.0 0.00 0.00 0.00 92 1012.7
20260906032540 17 343 0.0 0.0 0.00 0.00 0.00 92 1012.7
20260906032041 17 64 0.0 0.0 0.00 0.00 0.00 92 1012.6
20260906031540 17 64 0.0 0.0 0.00 0.00 0.00 92 1012.4
20260906031040 18 72 0.0 0.0 0.00 0.00 0.00 91 1012.8
20260906030540 18 91 0.0 0.0 0.00 0.00 0.00 91 1012.6
20260906030041 18 71 1.6 1.6 0.00 0.00 0.00 91 1012.6
20260906025540 18 35 3.2 3.2 0.00 0.00 0.00 91 1012.4
20260906025041 18 84 0.0 0.0 0.00 0.00 0.00 90 1012.6
20260906024540 18 86 0.0 0.0 0.00 0.00 0.00 90 1012.4
20260906023540 18 47 0.0 0.0 0.00 0.00 0.00 88 1012.5
20260906023040 18 82 1.6 1.6 0.00 0.00 0.00 87 1012.5
20260906021541 18 76 0.0 0.0 0.00 0.00 0.00 87 1012.5
20260906021041 18 50 3.2 3.2 0.00 0.00 0.00 87 1012.4
20260906020541 18 58 3.2 3.2 0.00 0.00 0.00 87 1012.4
20260906020040 18 66 0.0 0.0 0.00 0.00 0.00 88 1012.6
20260906014541 18 93 0.0 0.0 0.00 0.00 0.00 88 1012.6
20260906014040 18 59 1.6 1.6 0.00 0.00 0.00 88 1012.2
20260906013540 18 33 3.2 3.2 0.00 0.00 0.00 88 1012.2
20260906013040 18 15 4.8 4.8 0.00 0.00 0.00 88 1012.3
20260906012040 18 72 0.0 0.0 0.00 0.00 0.00 88 1012.2
20260906011040 18 78 0.0 0.0 0.00 0.00 0.00 87 1012.0
20260906010040 18 60 3.2 3.2 0.00 0.00 0.00 87 1012.0
20260906005540 18 71 1.6 1.6 0.00 0.00 0.00 87 1011.9
20260906005040 18 53 0.0 0.0 0.00 0.00 0.00 86 1011.8
20260906004541 18 47 3.2 4.8 0.00 0.00 0.00 85 1011.8
20260906004040 18 51 1.6 1.6 0.00 0.00 0.00 85 1011.9
20260906002540 18 75 0.0 0.0 0.00 0.00 0.00 83 1011.6
20260906001540 18 30 3.2 3.2 0.00 0.00 0.00 83 1011.6
20260906001040 18 5 4.8 4.8 0.00 0.00 0.00 83 1011.5
20260906000540 18 82 0.0 0.0 0.00 0.00 0.00 82 1011.5
20260906000042 18 87 0.0 0.0 0.00 0.00 0.00 82 1011.4
20260905212040 21 77 3.2 3.2 0.00 0.00 0.00 76 1011.8
20260905200040 21 290 9.7 14.5 0.00 0.00 0.00 70 1011.7
20260905195541 22 287 12.9 14.5 0.00 0.00 0.00 67 1011.9
20260905194540 21 63 4.8 4.8 0.00 0.00 0.00 71 1011.8
20260905194041 21 30 4.8 4.8 0.00 0.00 0.00 70 1012.0
20260905192040 18 58 1.6 1.6 0.00 0.00 0.00 82 1012.0
20260905190041 17 19 3.2 3.2 0.00 0.00 0.00 86 1012.0
20260905185541 17 60 3.2 3.2 0.00 0.00 0.00 86 1011.9
20260905182540 16 80 1.6 1.6 0.00 0.00 0.00 88 1012.6
20260905180041 16 89 0.0 0.0 0.00 0.00 0.00 92 1013.2
20260905113039 19 285 3.2 4.8 0.00 0.00 0.00 88 1013.8
20260905110040 19 51 3.2 3.2 0.00 0.00 0.00 87 1013.5
20260905105540 19 263 3.2 3.2 0.00 0.00 0.00 88 1013.7
20260905105040 19 55 0.0 0.0 0.00 0.00 0.00 87 1013.5
20260905104539 20 276 3.2 3.2 0.00 0.00 0.00 87 1013.6
20260905104040 20 63 1.6 1.6 0.00 0.00 0.00 87 1013.5
20260905103540 20 62 1.6 1.6 0.00 0.00 0.00 87 1013.4
20260905103039 20 63 0.0 1.6 0.00 0.00 0.00 87 1013.4
20260905102041 20 65 1.6 1.6 0.00 0.00 0.00 87 1013.4
20260905101041 20 58 1.6 1.6 0.00 0.00 0.00 87 1013.5
20260905100540 20 70 0.0 0.0 0.00 0.00 0.00 86 1013.3
20260905100041 20 344 1.6 3.2 0.00 0.00 0.00 86 1013.5
20260905095540 20 74 0.0 0.0 0.00 0.00 0.00 86 1013.4
20260905095041 20 29 3.2 4.8 0.00 0.00 0.00 86 1013.3
20260905094540 20 70 1.6 3.2 0.00 0.00 0.00 86 1013.2
20260905094040 20 70 0.0 0.0 0.00 0.00 0.00 86 1013.2
20260905093540 20 77 4.8 6.4 0.00 0.00 0.00 86 1013.3
20260905093042 20 76 0.0 0.0 0.00 0.00 0.00 86 1013.3
20260905092542 20 65 0.0 0.0 0.00 0.00 0.00 86 1013.4
20260905092040 20 61 1.6 1.6 0.00 0.00 0.00 86 1013.5
20260905091540 20 61 1.6 1.6 0.00 0.00 0.00 86 1013.3
20260905091041 20 53 0.0 0.0 0.00 0.00 0.00 85 1013.4
20260905090541 20 55 3.2 3.2 0.00 0.00 0.00 85 1013.3
20260905090041 20 76 0.0 1.6 0.00 0.00 0.00 85 1013.6
20260905085541 20 68 1.6 1.6 0.00 0.00 0.00 85 1013.4
20260905085040 20 71 0.0 0.0 0.00 0.00 0.00 84 1013.5
20260905084541 20 12 3.2 3.2 0.00 0.00 0.00 84 1013.5
20260905084040 20 66 3.2 3.2 0.00 0.00 0.00 85 1013.6
20260905083540 20 61 0.0 0.0 0.00 0.00 0.00 85 1013.4
20260905083040 20 55 0.0 0.0 0.00 0.00 0.00 84 1013.7
20260905082041 20 66 0.0 0.0 0.00 0.00 0.00 83 1013.8
20260905081540 20 70 0.0 0.0 0.00 0.00 0.00 83 1013.9
20260905081040 20 63 1.6 1.6 0.00 0.00 0.00 84 1013.7
20260905080540 20 60 0.0 0.0 0.00 0.00 0.00 85 1013.8
20260905080041 20 61 0.0 0.0 0.00 0.00 0.00 85 1014.0
20260905075540 20 61 0.0 0.0 0.00 0.00 0.00 85 1013.8
20260905075040 20 61 0.0 0.0 0.00 0.00 0.00 85 1014.0
20260905074540 20 61 0.0 0.0 0.00 0.00 0.00 85 1013.8
20260905074040 20 56 0.0 0.0 0.00 0.00 0.00 85 1014.0
20260905073541 20 57 1.6 1.6 0.00 0.00 0.00 86 1014.0
20260905073040 20 63 0.0 0.0 0.00 0.00 0.00 85 1014.0